Regional Weather Roundup
Issued by NWS

Home | Current Version | Previous Version | Graphics & Text | Print | Product List | Glossary On
Versions: 1 2 3 4 5 6 7 8 9 10 11 12 13 14 15 16 17 18 19 20 21 22 23 24 25 26 27 28 29 30 31 32 33 34 35 36 37 38 39 40 41 42 43 44 45 46 47 48 49 50
000
ASUS45 KSLC 250610
RWRUT

UTAH REGIONAL WEATHER ROUNDUP
NATIONAL WEATHER SERVICE SALT LAKE CITY UT
1100 PM MST SAT JAN 24 2015

UTZ001>011-023>025-250700-

NORTHERN UTAH

CITY           SKY/WX    TMP DP  RH WIND       PRES   REMARKS
BRIGHAM CITY   CLOUDY    33  28  80 CALM      30.50S
HILL AFB       CLOUDY    33  23  66 N6        30.49R WCI  28
LOGAN          CLOUDY    32  29  88 CALM      30.49S
OGDEN          CLOUDY    33  26  75 N6        30.50R WCI  28
PROVO AIRPORT  CLOUDY    34  25  69 E3        30.48F
SALT LAKE CITY CLOUDY    35  29  78 N3        30.48R
VERNAL         PTCLDY    23  16  74 CALM      30.39R
WENDOVER       CLEAR     30  21  69 CALM      30.49S
HEBER CITY     CLOUDY    30  25  80 CALM      30.46R
WEST JORDAN    CLOUDY    36  25  64 CALM      30.48S

$$

UTZ012>022-026-027-250700-

SOUTHERN/CENTRAL UTAH

CITY           SKY/WX    TMP DP  RH WIND       PRES   REMARKS
BLANDING       CLEAR     28  20  71 N9        30.37S WCI  19
BRYCE CANYON   CLEAR     26  19  74 CALM      30.39S
CEDAR CITY     CLEAR     30  21  69 E7        30.40R WCI  23
DELTA          CLOUDY    34  27  73 E3        30.46F
MILFORD        CLEAR     32  23  69 N7        30.43R WCI  26
MOAB/CYNLANDS  CLEAR     27  19  72 CALM      30.36S
PRICE          CLEAR     31  16  54 E6        30.34F WCI  25
ST GEORGE      CLEAR     46  21  36 N5        30.30R
KANAB          CLEAR     30  19  64 NE6       30.35R WCI  24

$$

REGIONAL REPORTS     COLORADO/ARIZONA

CITY           SKY/WX    TMP DP  RH WIND       PRES   REMARKS
CRAIG, CO      CLOUDY    26  20  77 SW3       30.36R
GRAND JUNCTION PTCLDY    25  17  72 E5        30.38S WCI  19
RIFLE          CLOUDY    26  19  74 CALM      30.40R
MONTROSE       CLEAR     22  14  71 S8        30.41R WCI  12
CORTEZ         CLEAR     24  16  71 NE7       30.27R WCI  16
PAGE, AZ       NOT AVBL
GRAND CANYON   PTCLDY    27  15  61 NE5       30.31F WCI  22
KINGMAN        CLEAR     41  20  43 E10       30.23S
FLAGSTAFF      CLEAR     40  14  34 E15       30.28S WCI  32

$$

REGIONAL REPORTS    NEVADA/IDAHO/WYOMING

CITY           SKY/WX    TMP DP  RH WIND       PRES   REMARKS
LAS VEGAS, NV  CLEAR     54  22  28 SW7       30.20F
ELY            CLEAR     26  20  77 SE5       30.45R WCI  20
ELKO           CLEAR     31  26  82 NE3       30.46R
POCATELLO, ID  CLOUDY    31  30  96 N3        30.45S
BURLEY         MOCLDY    31  28  89 CALM      30.44R
EVANSTON, WY   CLEAR     27  23  85 W6        30.45R WCI  20
ROCK SPRINGS   CLEAR     32  27  81 W30G40    30.32R WCI  18
KEMMERER       CLOUDY    30  30 100 W8        30.41S WCI  23

$$



USA.gov is the U.S. government's official web portal to all federal, state and local government web resources and services.